TimeCDT,TemperatureF,Dew PointF,Humidity,Sea Level PressureIn,VisibilityMPH,Wind Direction,Wind SpeedMPH,Gust SpeedMPH,PrecipitationIn,Events,Conditions,WindDirDegrees,DateUTC
12:13 AM,37.4,28.4,70,30.21,10.0,SE,12.7,18.4,N/A,,Overcast,130,2013-04-21 05:13:00
12:32 AM,37.4,26.6,65,30.20,10.0,SE,10.4,17.3,N/A,,Overcast,140,2013-04-21 05:32:00
12:52 AM,37.4,26.6,65,30.20,10.0,SE,8.1,-,N/A,,Overcast,130,2013-04-21 05:52:00
1:13 AM,37.4,28.4,70,30.20,10.0,SE,8.1,-,N/A,,Overcast,130,2013-04-21 06:13:00
1:32 AM,37.4,26.6,65,30.19,10.0,SE,11.5,17.3,N/A,,Overcast,130,2013-04-21 06:32:00
1:52 AM,37.4,28.4,70,30.18,10.0,ESE,12.7,-,N/A,,Overcast,110,2013-04-21 06:52:00
2:13 AM,35.6,28.4,75,30.18,10.0,SE,11.5,-,N/A,,Overcast,130,2013-04-21 07:13:00
2:32 AM,35.6,28.4,75,30.17,10.0,ESE,11.5,-,N/A,,Overcast,120,2013-04-21 07:32:00
2:52 AM,35.6,28.4,75,30.16,10.0,ESE,11.5,-,N/A,,Overcast,120,2013-04-21 07:52:00
3:13 AM,35.6,28.4,75,30.16,10.0,SE,10.4,-,N/A,,Overcast,130,2013-04-21 08:13:00
3:32 AM,35.6,28.4,75,30.15,10.0,ESE,10.4,-,N/A,,Mostly Cloudy,120,2013-04-21 08:32:00
3:52 AM,35.6,30.2,81,30.15,10.0,ESE,9.2,-,N/A,,Scattered Clouds,120,2013-04-21 08:52:00
4:13 AM,35.6,30.2,81,30.15,10.0,ESE,8.1,-,N/A,,Scattered Clouds,120,2013-04-21 09:13:00
4:32 AM,35.6,30.2,81,30.15,10.0,ESE,8.1,-,N/A,,Mostly Cloudy,120,2013-04-21 09:32:00
4:53 AM,35.6,30.2,81,30.14,10.0,SE,12.7,-,N/A,,Overcast,130,2013-04-21 09:53:00
5:13 AM,35.6,30.2,81,30.14,10.0,SE,12.7,-,N/A,,Overcast,130,2013-04-21 10:13:00
5:32 AM,37.4,30.2,75,30.14,10.0,SE,12.7,18.4,N/A,,Overcast,130,2013-04-21 10:32:00
5:52 AM,37.4,30.2,75,30.14,10.0,SE,11.5,17.3,N/A,,Overcast,130,2013-04-21 10:52:00
6:13 AM,37.4,30.2,75,30.14,10.0,SE,11.5,-,N/A,,Light Drizzle,130,2013-04-21 11:13:00
6:32 AM,37.4,30.2,75,30.14,10.0,SE,10.4,-,N/A,,Overcast,140,2013-04-21 11:32:00
6:52 AM,35.6,32.0,87,30.14,10.0,SE,11.5,16.1,N/A,,Mostly Cloudy,140,2013-04-21 11:52:00
7:13 AM,35.6,32.0,87,30.13,10.0,SE,15.0,19.6,N/A,,Scattered Clouds,140,2013-04-21 12:13:00
7:32 AM,35.6,32.0,87,30.13,10.0,SE,16.1,23.0,N/A,,Clear,140,2013-04-21 12:32:00
7:52 AM,37.4,32.0,81,30.12,10.0,SE,11.5,19.6,N/A,,Clear,140,2013-04-21 12:52:00
8:13 AM,37.4,33.8,87,30.12,10.0,SE,15.0,19.6,N/A,,Clear,140,2013-04-21 13:13:00
8:32 AM,37.4,33.8,87,30.11,10.0,SE,16.1,21.9,N/A,,Scattered Clouds,140,2013-04-21 13:32:00
8:52 AM,39.2,33.8,81,30.10,10.0,SE,15.0,20.7,N/A,,Scattered Clouds,140,2013-04-21 13:52:00
9:13 AM,39.2,33.8,81,30.10,10.0,SE,15.0,26.5,N/A,,Clear,140,2013-04-21 14:13:00
9:32 AM,39.2,33.8,81,30.10,10.0,SE,18.4,24.2,N/A,,Clear,140,2013-04-21 14:32:00
9:52 AM,41.0,35.6,81,30.09,10.0,SSE,15.0,19.6,N/A,,Clear,150,2013-04-21 14:52:00
10:13 AM,42.8,35.6,76,30.08,10.0,SE,16.1,-,N/A,,Clear,140,2013-04-21 15:13:00
10:32 AM,44.6,35.6,71,30.07,10.0,SSE,17.3,25.3,N/A,,Clear,160,2013-04-21 15:32:00
10:52 AM,44.6,35.6,71,30.07,10.0,SSE,15.0,24.2,N/A,,Clear,160,2013-04-21 15:52:00
11:13 AM,44.6,35.6,71,30.06,10.0,SSE,15.0,21.9,N/A,,Clear,160,2013-04-21 16:13:00
11:32 AM,44.6,35.6,71,30.06,10.0,SSE,16.1,25.3,N/A,,Clear,160,2013-04-21 16:32:00
11:52 AM,46.4,37.4,71,30.05,10.0,SSE,17.3,26.5,N/A,,Clear,160,2013-04-21 16:52:00
12:12 PM,48.2,37.4,66,30.04,10.0,SSE,17.3,24.2,N/A,,Clear,160,2013-04-21 17:12:00
12:32 PM,48.2,39.2,71,30.03,10.0,South,17.3,25.3,N/A,,Clear,170,2013-04-21 17:32:00
12:53 PM,48.2,39.2,71,30.02,10.0,South,15.0,24.2,N/A,,Clear,170,2013-04-21 17:53:00
1:12 PM,50.0,39.2,66,30.01,10.0,South,12.7,24.2,N/A,,Clear,170,2013-04-21 18:12:00
1:32 PM,50.0,39.2,66,30.01,10.0,South,12.7,21.9,N/A,,Clear,170,2013-04-21 18:32:00
1:53 PM,51.8,41.0,67,30.00,10.0,South,17.3,24.2,N/A,,Clear,170,2013-04-21 18:53:00
2:12 PM,51.8,41.0,67,30.00,10.0,South,12.7,-,N/A,,Clear,170,2013-04-21 19:12:00
2:32 PM,53.6,42.8,67,30.00,10.0,South,13.8,19.6,N/A,,Clear,170,2013-04-21 19:32:00
2:52 PM,53.6,42.8,67,30.00,10.0,South,11.5,18.4,N/A,,Scattered Clouds,180,2013-04-21 19:52:00
3:12 PM,53.6,42.8,67,30.00,10.0,South,15.0,19.6,N/A,Rain,Light Rain,190,2013-04-21 20:12:00
3:33 PM,53.6,42.8,67,30.00,10.0,South,12.7,19.6,N/A,Rain,Light Rain,190,2013-04-21 20:33:00
3:52 PM,51.8,44.6,76,30.00,10.0,SSW,12.7,-,N/A,Rain,Light Rain,200,2013-04-21 20:52:00
4:12 PM,50.0,44.6,82,30.01,10.0,WSW,5.8,10.4,N/A,,Drizzle,240,2013-04-21 21:12:00
4:32 PM,48.2,44.6,87,30.01,10.0,Calm,Calm,-,N/A,,Light Drizzle,0,2013-04-21 21:32:00
4:52 PM,46.4,44.6,93,30.01,10.0,Calm,Calm,-,N/A,Rain,Light Rain,0,2013-04-21 21:52:00
5:12 PM,46.4,42.8,87,30.02,10.0,WSW,6.9,-,N/A,,Drizzle,250,2013-04-21 22:12:00
5:32 PM,46.4,42.8,87,30.02,10.0,WSW,5.8,-,N/A,,Light Drizzle,250,2013-04-21 22:32:00
5:52 PM,46.4,42.8,87,30.01,7.0,Calm,Calm,-,N/A,Rain,Light Rain,0,2013-04-21 22:52:00
6:13 PM,46.4,44.6,93,30.03,10.0,West,9.2,-,N/A,,Overcast,270,2013-04-21 23:13:00
6:32 PM,46.4,42.8,87,30.04,10.0,West,16.1,-,N/A,,Overcast,280,2013-04-21 23:32:00
6:52 PM,44.6,41.0,87,30.06,10.0,WNW,16.1,-,N/A,,Overcast,290,2013-04-21 23:52:00
7:13 PM,42.8,39.2,87,30.06,10.0,West,16.1,-,N/A,,Overcast,280,2013-04-22 00:13:00
7:32 PM,42.8,39.2,87,30.07,10.0,West,11.5,-,N/A,,Overcast,280,2013-04-22 00:32:00
7:52 PM,42.8,39.2,87,30.08,10.0,West,15.0,-,N/A,,Overcast,280,2013-04-22 00:52:00
8:13 PM,41.0,39.2,93,30.09,10.0,WNW,12.7,-,N/A,,Overcast,290,2013-04-22 01:13:00
8:32 PM,39.2,37.4,93,30.10,10.0,West,12.7,-,N/A,,Mostly Cloudy,280,2013-04-22 01:32:00
8:52 PM,39.2,37.4,93,30.11,10.0,WNW,15.0,-,N/A,,Mostly Cloudy,290,2013-04-22 01:52:00
9:13 PM,37.4,35.6,93,30.12,10.0,WNW,10.4,-,N/A,,Mostly Cloudy,300,2013-04-22 02:13:00
9:32 PM,37.4,35.6,93,30.14,10.0,WNW,12.7,-,N/A,,Mostly Cloudy,300,2013-04-22 02:32:00
9:52 PM,37.4,35.6,93,30.14,10.0,NW,15.0,21.9,N/A,,Overcast,310,2013-04-22 02:52:00
10:13 PM,37.4,35.6,93,30.15,10.0,NW,13.8,-,N/A,,Overcast,320,2013-04-22 03:13:00
10:32 PM,37.4,35.6,93,30.15,10.0,NW,11.5,-,N/A,,Overcast,310,2013-04-22 03:32:00
10:52 PM,37.4,35.6,93,30.15,10.0,NW,10.4,-,N/A,,Overcast,320,2013-04-22 03:52:00
11:13 PM,37.4,35.6,93,30.16,10.0,NW,12.7,-,N/A,,Overcast,320,2013-04-22 04:13:00
11:32 PM,35.6,33.8,93,30.16,10.0,NW,11.5,-,N/A,,Overcast,320,2013-04-22 04:32:00
11:52 PM,35.6,33.8,93,30.16,10.0,NW,10.4,-,N/A,,Overcast,320,2013-04-22 04:52:00